Weather History for KRBG - October, 2012

Change the Weather History Date:

Sunday, October 21, 2012

  Actual Average Record
Temperature  
Mean Temperature 45 °F 54 °F  
Max Temperature 52 °F 64 °F 83 °F (2003)
Min Temperature 38 °F 44 °F 30 °F (1949)
Degree Days  
Heating Degree Days 20 11  
Month to date heating degree days 141 169  
Since 1 July heating degree days 167 258  
Cooling Degree Days 0 0  
Month to date cooling degree days 3 2  
Year to date cooling degree days 496 478  
Moisture  
Dew Point 41 °F    
Average Humidity 87    
Maximum Humidity 100    
Minimum Humidity 74    
Precipitation  
Precipitation 0.10 in 0.10 in 1.15 in (1973)
Month to date precipitation 1.18 1.40  
Year to date precipitation 24.52 22.01  
Sea Level Pressure  
Sea Level Pressure 29.90 in    
Wind  
Wind Speed 0 mph (NNW)    
Max Wind Speed 9 mph    
Max Gust Speed 10 mph    
Visibility 8 miles    
Events Fog , Rain    
T = Trace of Precipitation, MM = Missing Value Source: NWS Daily Summary

Daily Weather History Graph

Daily Weather History Graph

Search for Another Location

Airport or City:

Trip Planner

Search our weather history database for the weather conditions in past years. The results will help you decide how hot, cold, wet, or windy it might be!

Date:

Astronomy

Oct. 21, 2012 Rise Set
Actual Time 7:35 AM PDT 6:19 PM PDT
Civil Twilight 7:06 AM PDT 6:48 PM PDT
Nautical Twilight 6:33 AM PDT 7:22 PM PDT
Astronomical Twilight 6:00 AM PDT 7:55 PM PDT
Moon 2:03 PM PDT (10/21) No Moon Set
Length of Visible Light 11h 42m
Length of Day
10h 44m
Waxing Crescent, 46% of the Moon is Illuminated
Oct 21
Waxing Crescent
Oct 21
First Quarter
Oct 29
Full
Nov 6
Last Quarter
Nov 13
New

Hourly Weather History & Observations

Time (PDT) Temp. Dew Point Humidity Pressure Visibility Wind Dir Wind Speed Gust Speed Precip Events Conditions
12:53 AM 39.9 °F 37.9 °F 93% 29.99 in 10.0 mi Calm Calm - N/A   Clear
1:53 AM 39.0 °F 37.0 °F 93% 29.98 in 10.0 mi Calm Calm - N/A   Clear
2:53 AM 37.9 °F 37.0 °F 97% 29.98 in 8.0 mi Calm Calm - N/A   Partly Cloudy
3:00 AM 37.4 °F 37.4 °F 100% 29.97 in 1.2 mi Calm Calm - N/A   Mostly Cloudy
3:07 AM 37.4 °F 37.4 °F 100% 29.97 in 0.2 mi Calm Calm - N/A Fog Fog
3:21 AM 37.4 °F 37.4 °F 100% 29.96 in 1.2 mi Calm Calm - N/A   Overcast
3:23 AM 37.4 °F 37.4 °F 100% 29.96 in 3.0 mi Calm Calm - N/A   Overcast
3:53 AM 37.9 °F 37.9 °F 100% 29.96 in 7.0 mi Calm Calm - N/A   Overcast
4:24 AM 37.4 °F 37.4 °F 100% 29.95 in 5.0 mi Calm Calm - N/A   Overcast
4:53 AM 37.9 °F 37.0 °F 97% 29.96 in 6.0 mi Calm Calm - N/A   Overcast
5:10 AM 39.2 °F 37.4 °F 93% 29.95 in 9.0 mi Calm Calm - N/A   Overcast
5:53 AM 39.9 °F 37.9 °F 93% 29.96 in 9.0 mi Calm Calm - N/A   Overcast
6:53 AM 41.0 °F 39.0 °F 93% 29.96 in 10.0 mi Calm Calm - N/A   Overcast
7:53 AM 41.0 °F 39.0 °F 93% 29.95 in 10.0 mi Calm Calm - N/A   Overcast
8:32 AM 41.0 °F 39.2 °F 93% 29.95 in 10.0 mi Calm Calm - N/A   Overcast
8:41 AM 41.0 °F 39.2 °F 93% 29.95 in 10.0 mi Calm Calm - N/A   Overcast
8:48 AM 41.0 °F 39.2 °F 93% 29.94 in 10.0 mi Calm Calm - N/A   Overcast
8:53 AM 41.0 °F 39.0 °F 93% 29.95 in 10.0 mi Calm Calm - N/A   Overcast
8:58 AM 41.0 °F 39.2 °F 93% 29.94 in 10.0 mi Calm Calm - N/A   Overcast
9:53 AM 43.0 °F 39.9 °F 89% 29.95 in 8.0 mi Calm Calm - 0.01 in Rain Light Rain
10:53 AM 44.1 °F 39.9 °F 85% 29.95 in 7.0 mi Calm Calm - 0.01 in Rain Light Rain
11:53 AM 46.0 °F 41.0 °F 83% 29.94 in 10.0 mi Calm Calm - 0.00 in   Overcast
12:53 PM 50.0 °F 42.1 °F 74% 29.91 in 10.0 mi Calm Calm - 0.00 in   Overcast
1:53 PM 51.1 °F 43.0 °F 74% 29.87 in 10.0 mi NNW 4.6 mph - 0.00 in Rain Light Rain
2:53 PM 50.0 °F 43.0 °F 77% 29.86 in 10.0 mi NNW 5.8 mph - 0.01 in Rain Light Rain
3:21 PM 48.2 °F 44.6 °F 87% 29.85 in 2.5 mi Calm Calm - 0.02 in Rain Light Rain
3:29 PM 48.2 °F 44.6 °F 87% 29.85 in 5.0 mi Calm Calm - 0.03 in Rain Light Rain
3:53 PM 50.0 °F 42.1 °F 74% 29.85 in 10.0 mi Calm Calm - 0.03 in   Overcast
4:53 PM 50.0 °F 44.1 °F 80% 29.84 in 10.0 mi Calm Calm - N/A   Overcast
5:53 PM 50.0 °F 45.0 °F 83% 29.82 in 10.0 mi Calm Calm - 0.00 in Rain Light Rain
6:53 PM 48.9 °F 44.1 °F 83% 29.81 in 10.0 mi Calm Calm - 0.01 in   Overcast
7:53 PM 48.0 °F 45.0 °F 89% 29.81 in 10.0 mi Calm Calm - 0.01 in   Overcast
8:53 PM 46.9 °F 44.1 °F 90% 29.78 in 10.0 mi Calm Calm - 0.00 in Rain Light Rain
9:30 PM 46.4 °F 44.6 °F 93% 29.76 in 10.0 mi Calm Calm - 0.00 in   Overcast
9:53 PM 46.9 °F 45.0 °F 93% 29.76 in 10.0 mi Calm Calm - 0.00 in   Overcast
10:28 PM 46.4 °F 44.6 °F 93% 29.74 in 10.0 mi Calm Calm - 0.00 in Rain Light Rain
10:53 PM 46.0 °F 44.1 °F 93% 29.73 in 10.0 mi Calm Calm - 0.00 in   Overcast
11:53 PM 45.0 °F 44.1 °F 97% 29.73 in 10.0 mi Calm Calm - N/A   Overcast